Terug naar catalogus

STARLINK-35973

ActiefCommunicatieVLEO
NORAD 66632·PAYLOAD·🇺🇸 United States

Gelanceerd Nov 23, 2025 vanaf Vandenberg Space Force Base

Loading…

Volgende Passages (komende 24 uur)

TLE

VersSource: CelesTrak SupGP

Epoch: Sep 15, 2026, 03:56 UTC

1 66632C 25271R   26258.16437500  .00058413  00000+0  17254-2 0  2588
2 66632  53.1598 334.9250 0001198  86.1237 339.1186 15.34369040    15

Volg STARLINK-35973 in realtime met AllMySat

Download on the App Store